TimeCST,TemperatureF,Dew PointF,Humidity,Sea Level PressureIn,VisibilityMPH,Wind Direction,Wind SpeedMPH,Gust SpeedMPH,PrecipitationIn,Events,Conditions,WindDirDegrees,DateUTC
12:53 AM,35.1,28.0,76,30.21,10.0,Calm,Calm,-,N/A,,Clear,0,2012-11-15 06:53:00
1:53 AM,32.0,26.1,79,30.21,10.0,Calm,Calm,-,N/A,,Clear,0,2012-11-15 07:53:00
2:53 AM,32.0,26.1,79,30.21,10.0,ESE,3.5,-,N/A,,Clear,120,2012-11-15 08:53:00
3:53 AM,34.0,28.0,79,30.20,10.0,SE,3.5,-,N/A,,Clear,140,2012-11-15 09:53:00
4:53 AM,37.0,28.9,73,30.21,10.0,Calm,Calm,-,N/A,,Clear,0,2012-11-15 10:53:00
5:53 AM,37.0,30.0,76,30.23,10.0,Calm,Calm,-,N/A,,Clear,0,2012-11-15 11:53:00
6:53 AM,35.1,30.0,82,30.25,10.0,Calm,Calm,-,N/A,,Clear,0,2012-11-15 12:53:00
7:53 AM,35.1,30.0,82,30.28,10.0,Calm,Calm,-,N/A,,Clear,0,2012-11-15 13:53:00
8:53 AM,39.9,33.1,77,30.30,10.0,Calm,Calm,-,N/A,,Clear,0,2012-11-15 14:53:00
9:53 AM,43.0,32.0,65,30.32,10.0,Calm,Calm,-,N/A,,Clear,0,2012-11-15 15:53:00
10:53 AM,44.1,33.1,65,30.34,10.0,Calm,Calm,-,N/A,,Clear,0,2012-11-15 16:53:00
11:53 AM,48.9,32.0,52,30.32,10.0,Calm,Calm,-,N/A,,Clear,0,2012-11-15 17:53:00
12:53 PM,54.0,30.9,41,30.29,10.0,North,3.5,-,N/A,,Clear,360,2012-11-15 18:53:00
1:53 PM,55.9,32.0,40,30.29,10.0,Variable,3.5,-,N/A,,Clear,0,2012-11-15 19:53:00
2:53 PM,57.0,33.1,40,30.30,10.0,NE,4.6,-,N/A,,Mostly Cloudy,50,2012-11-15 20:53:00
3:53 PM,57.9,32.0,37,30.30,10.0,ENE,8.1,-,N/A,,Mostly Cloudy,60,2012-11-15 21:53:00
4:53 PM,55.0,34.0,45,30.33,10.0,NE,5.8,-,N/A,,Mostly Cloudy,40,2012-11-15 22:53:00
5:53 PM,53.1,33.1,47,30.35,10.0,NE,5.8,-,N/A,,Scattered Clouds,50,2012-11-15 23:53:00
6:53 PM,50.0,33.1,52,30.38,10.0,NNE,3.5,-,N/A,,Scattered Clouds,20,2012-11-16 00:53:00
7:53 PM,45.0,32.0,60,30.40,10.0,Calm,Calm,-,N/A,,Partly Cloudy,0,2012-11-16 01:53:00
8:53 PM,43.0,32.0,65,30.40,10.0,Calm,Calm,-,N/A,,Clear,0,2012-11-16 02:53:00
9:53 PM,39.0,30.9,73,30.41,10.0,Calm,Calm,-,N/A,,Clear,0,2012-11-16 03:53:00
10:53 PM,37.0,30.9,79,30.42,10.0,NW,5.8,-,N/A,,Clear,310,2012-11-16 04:53:00
11:53 PM,36.0,30.0,79,30.43,8.0,WNW,3.5,-,N/A,,Clear,300,2012-11-16 05:53:00